Weather History for KCVG - December, 2014

Change the Weather History Date:

Wednesday, December 10, 2014

  Actual Average Record
Temperature  
Mean Temperature 35 °F 35 °F  
Max Temperature 38 °F 43 °F 67 °F (1971)
Min Temperature 31 °F 28 °F -8 °F (1917)
Degree Days  
Heating Degree Days 30 30  
Month to date heating degree days 257 281  
Since 1 July heating degree days 1395 1241  
Cooling Degree Days 0 0  
Month to date cooling degree days 0 0  
Year to date cooling degree days 1077 1121  
Moisture  
Dew Point 25 °F    
Average Humidity 67    
Maximum Humidity 75    
Minimum Humidity 59    
Precipitation  
Precipitation 0.00 in 0.11 in 1.27 in (1879)
Month to date precipitation 2.34 1.12  
Year to date precipitation 41.03 40.27  
Snow  
Snow 0.00 in 0.20 in 3.30 in (1932)
Month to date snowfall T 1.1  
Since 1 July snowfall 5.1 1.9  
Snow Depth 0.00 in    
Sea Level Pressure  
Sea Level Pressure 30.24 in    
Wind  
Wind Speed 10 mph (NNW)    
Max Wind Speed 17 mph    
Max Gust Speed 22 mph    
Visibility 10 miles    
Events      
T = Trace of Precipitation, MM = Missing Value Source: NWS Daily Summary

Daily Weather History Graph

Daily Weather History Graph

Search for Another Location

Airport or City:

Trip Planner

Search our weather history database for the weather conditions in past years. The results will help you decide how hot, cold, wet, or windy it might be!

Date:

Astronomy

Dec. 10, 2014 Rise Set
Actual Time 7:46 AM EST 5:16 PM EST
Civil Twilight 7:16 AM EST 5:46 PM EST
Nautical Twilight 6:43 AM EST 6:19 PM EST
Astronomical Twilight 6:11 AM EST 6:51 PM EST
Moon 9:29 PM EST (12/10) 10:37 AM EST (12/10)
Length of Visible Light 10h 29m
Length of Day
9h 29m
Waning Gibbous, 83% of the Moon is Illuminated
Dec 10
Waning Gibbous
Dec 14
Last Quarter
Dec 21
New
Dec 28
First Quarter
Jan 4
Full

Hourly Weather History & Observations

Time (EST) Temp. Windchill Dew Point Humidity Pressure Visibility Wind Dir Wind Speed Gust Speed Precip Events Conditions
12:52 AM 37.9 °F 30.0 °F 28.0 °F 68% 30.24 in 10.0 mi NNW 12.7 mph - N/A   Overcast
1:52 AM 37.0 °F 30.4 °F 28.9 °F 73% 30.24 in 10.0 mi NNW 9.2 mph - N/A   Overcast
2:52 AM 37.0 °F 29.8 °F 28.9 °F 73% 30.25 in 10.0 mi NNW 10.4 mph - N/A   Overcast
3:52 AM 37.0 °F 29.8 °F 28.9 °F 73% 30.24 in 10.0 mi NNW 10.4 mph - N/A   Overcast
4:52 AM 36.0 °F 29.6 °F 28.9 °F 76% 30.24 in 10.0 mi North 8.1 mph - N/A   Overcast
5:52 AM 36.0 °F 29.6 °F 28.0 °F 73% 30.24 in 10.0 mi North 8.1 mph - N/A   Overcast
6:52 AM 36.0 °F 28.0 °F 27.0 °F 70% 30.25 in 10.0 mi North 11.5 mph - N/A   Overcast
7:52 AM 35.1 °F 27.4 °F 25.0 °F 67% 30.25 in 10.0 mi North 10.4 mph - N/A   Overcast
8:52 AM 35.1 °F 29.3 °F 25.0 °F 67% 30.27 in 10.0 mi NNW 6.9 mph - N/A   Overcast
9:52 AM 35.1 °F 25.2 °F 24.1 °F 64% 30.28 in 10.0 mi North 16.1 mph - N/A   Overcast
10:52 AM 35.1 °F 24.8 °F 23.0 °F 61% 30.29 in 10.0 mi NNW 17.3 mph - N/A   Overcast
11:52 AM 35.1 °F 26.9 °F 23.0 °F 61% 30.27 in 10.0 mi North 11.5 mph - N/A   Overcast
12:52 PM 35.1 °F 25.9 °F 23.0 °F 61% 30.25 in 10.0 mi NNW 13.8 mph - N/A   Overcast
1:52 PM 35.1 °F 26.9 °F 24.1 °F 64% 30.24 in 10.0 mi North 11.5 mph - N/A   Overcast
2:52 PM 34.0 °F 25.5 °F 23.0 °F 64% 30.22 in 10.0 mi NNW 11.5 mph - N/A   Overcast
3:52 PM 34.0 °F 25.5 °F 23.0 °F 64% 30.22 in 10.0 mi NNW 11.5 mph - N/A   Overcast
4:52 PM 34.0 °F 26.6 °F 21.9 °F 61% 30.23 in 10.0 mi NNW 9.2 mph - N/A   Overcast
5:52 PM 33.1 °F 26.1 °F 23.0 °F 66% 30.22 in 10.0 mi NNW 8.1 mph - N/A   Overcast
6:52 PM 33.1 °F 26.9 °F 21.9 °F 64% 30.22 in 10.0 mi NW 6.9 mph - N/A   Overcast
7:52 PM 33.1 °F 26.9 °F 21.9 °F 64% 30.22 in 10.0 mi NNW 6.9 mph - N/A   Overcast
8:52 PM 32.0 °F 23.0 °F 21.9 °F 66% 30.21 in 10.0 mi NW 11.5 mph - N/A   Overcast
9:52 PM 32.0 °F 23.6 °F 21.9 °F 66% 30.20 in 10.0 mi NNW 10.4 mph - N/A   Overcast
10:52 PM 32.0 °F 26.4 °F 21.9 °F 66% 30.21 in 10.0 mi North 5.8 mph - N/A   Overcast